QPF
0.01 0.01 0.01 0.02 0.03 0.04 0.04 0.03 0.02 0.01 0.01 0.00 0.00 0.01 0.02 0.01 0.01 0.01 0.01 0.01 0.01 0.02 0.03 0.03 0.03 0.02 0.02 0.03 0.05 0.07 0.09 0.10 0.10 0.10 0.10 0.12 0.14 0.16
0.01 0.02 0.02 0.02 0.03 0.04 0.04 0.03 0.03 0.02 0.02 0.02 0.02 0.01 0.01 0.01 0.01 0.01 0.00 0.00 0.00 0.00 0.01 0.01 0.02 0.02 0.02 0.02 0.03 0.04 0.04 0.06 0.08 0.07 0.06 0.06 0.07 0.10
0.02 0.04 0.03 0.03 0.03 0.03 0.04 0.04 0.05 0.06 0.07 0.06 0.03 0.01 0.01 0.01 0.01 0.01 0.01 0.00 0.00 0.00 0.00 0.00 0.01 0.01 0.02 0.02 0.03 0.03 0.04 0.04 0.05 0.05 0.03 0.03 0.04 0.05
0.04 0.03 0.02 0.02 0.02 0.02 0.03 0.04 0.05 0.06 0.05 0.02 0.01 0.01 0.01 0.01 0.01 0.01 0.01 0.01 0.01 0.01 0.00 0.00 0.00 0.01 0.01 0.02 0.02 0.03 0.04 0.04 0.05 0.05 0.04 0.04 0.04 0.05
0.03 0.02 0.02 0.01 0.01 0.01 0.01 0.02 0.02 0.02 0.02 0.02 0.01 0.01 0.01 0.01 0.01 0.01 0.01 0.01 0.01 0.01 0.00 0.01 0.01 0.01 0.01 0.01 0.01 0.03 0.03 0.04 0.04 0.04 0.04 0.04 0.04 0.04
0.03 0.02 0.02 0.02 0.01 0.01 0.02 0.03 0.02 0.02 0.02 0.02 0.01 0.01 0.01 0.01 0.01 0.01 0.01 0.01 0.01 0.01 0.01 0.01 0.01 0.01 0.02 0.03 0.04 0.05 0.06 0.06 0.06 0.06 0.05 0.04 0.04 0.04
0.02 0.02 0.01 0.01 0.01 0.01 0.02 0.03 0.03 0.02 0.02 0.02 0.01 0.01 0.01 0.01 0.01 0.01 0.01 0.01 0.00 0.00 0.00 0.01 0.01 0.02 0.03 0.04 0.04 0.05 0.06 0.07 0.07 0.07 0.06 0.05 0.04 0.03
0.01 0.01 0.01 0.01 0.01 0.02 0.03 0.03 0.01 0.01 0.01 0.01 0.01 0.01 0.01 0.01 0.01 0.01 0.01 0.01 0.01 0.01 0.02 0.02 0.02 0.03 0.04 0.04 0.03 0.03 0.04 0.04 0.05 0.05 0.05 0.04 0.04 0.04
0.01 0.01 0.01 0.01 0.02 0.02 0.02 0.02 0.01 0.01 0.01 0.01 0.01 0.01 0.01 0.01 0.01 0.01 0.01 0.01 0.01 0.02 0.02 0.03 0.03 0.04 0.05 0.05 0.05 0.04 0.03 0.03 0.03 0.03 0.03 0.03 0.02 0.02
0.01 0.01 0.01 0.01 0.02 0.02 0.02 0.02 0.02 0.02 0.02 0.02 0.01 0.01 0.01 0.02 0.02 0.01 0.01 0.01 0.02 0.02 0.02 0.03 0.03 0.03 0.04 0.04 0.04 0.03 0.02 0.02 0.02 0.02 0.02 0.03 0.03 0.03
0.01 0.01 0.01 0.01 0.01 0.01 0.02 0.01 0.01 0.01 0.02 0.02 0.01 0.01 0.01 0.02 0.02 0.02 0.01 0.01 0.01 0.02 0.03 0.02 0.01 0.01 0.01 0.01 0.01 0.01 0.01 0.01 0.01 0.01 0.01 0.01 0.02 0.02
0.01 0.01 0.01 0.01 0.01 0.01 0.01 0.01 0.01 0.01 0.01 0.01 0.01 0.01 0.01 0.02 0.02 0.01 0.01 0.01 0.01 0.01 0.01 0.01 0.02 0.02 0.02 0.01 0.01 0.01 0.01 0.01 0.01 0.01 0.01 0.01 0.01 0.01
0.02 0.01 0.01 0.01 0.01 0.01 0.01 0.01 0.01 0.01 0.01 0.02 0.02 0.02 0.02 0.02 0.02 0.02 0.01 0.01 0.01 0.01 0.01 0.01 0.02 0.02 0.01 0.01 0.01 0.01 0.00 0.00 0.00 0.00 0.01 0.01 0.01 0.01
0.02 0.02 0.02 0.02 0.02 0.01 0.01 0.01 0.01 0.01 0.01 0.02 0.03 0.03 0.03 0.02 0.02 0.02 0.02 0.02 0.02 0.01 0.01 0.01 0.01 0.01 0.01 0.01 0.01 0.01 0.01 0.00 0.00 0.00 0.00 0.01 0.01 0.01
0.03 0.03 0.02 0.01 0.02 0.02 0.02 0.01 0.01 0.01 0.02 0.02 0.02 0.02 0.03 0.03 0.02 0.02 0.02 0.02 0.02 0.02 0.02 0.02 0.02 0.02 0.02 0.01 0.01 0.01 0.01 0.01 0.01 0.01 0.01 0.01 0.01 0.01
0.03 0.02 0.02 0.01 0.01 0.02 0.03 0.02 0.02 0.01 0.02 0.03 0.02 0.02 0.02 0.02 0.02 0.02 0.02 0.02 0.03 0.03 0.03 0.03 0.03 0.04 0.03 0.03 0.02 0.01 0.01 0.01 0.01 0.01 0.01 0.01 0.01 0.01
0.03 0.02 0.02 0.02 0.02 0.02 0.02 0.04 0.04 0.03 0.02 0.02 0.03 0.03 0.02 0.01 0.01 0.02 0.02 0.03 0.03 0.04 0.04 0.05 0.05 0.05 0.05 0.04 0.03 0.03 0.02 0.02 0.02 0.02 0.02 0.01 0.01 0.01
0.01 0.01 0.02 0.02 0.02 0.03 0.03 0.02 0.02 0.03 0.04 0.03 0.02 0.02 0.01 0.01 0.01 0.01 0.01 0.02 0.02 0.03 0.04 0.04 0.05 0.05 0.05 0.05 0.04 0.03 0.03 0.03 0.02 0.02 0.02 0.01 0.01 0.01
0.01 0.01 0.01 0.02 0.02 0.03 0.03 0.03 0.02 0.02 0.03 0.03 0.02 0.01 0.01 0.01 0.01 0.01 0.01 0.01 0.01 0.02 0.02 0.02 0.02 0.02 0.03 0.03 0.03 0.03 0.03 0.03 0.02 0.02 0.02 0.02 0.02 0.01
0.00 0.00 0.01 0.01 0.01 0.01 0.01 0.01 0.01 0.01 0.01 0.02 0.03 0.02 0.02 0.01 0.01 0.01 0.02 0.02 0.02 0.02 0.02 0.02 0.02 0.02 0.02 0.02 0.02 0.02 0.02 0.02 0.02 0.01 0.01 0.01 0.02 0.03
0.00 0.00 0.00 0.00 0.01 0.01 0.01 0.01 0.01 0.01 0.01 0.01 0.02 0.02 0.02 0.02 0.02 0.02 0.02 0.03 0.03 0.03 0.03 0.03 0.03 0.03 0.03 0.03 0.03 0.02 0.01 0.01 0.02 0.02 0.02 0.03 0.04 0.04
0.00 0.00 0.00 0.01 0.00 0.00 0.00 0.00 0.01 0.01 0.01 0.01 0.01 0.01 0.01 0.01 0.01 0.01 0.01 0.02 0.02 0.03 0.03 0.03 0.04 0.04 0.04 0.04 0.03 0.02 0.02 0.02 0.03 0.03 0.03 0.03 0.03 0.03
0.00 0.00 0.00 0.00 0.00 0.00 0.00 0.00 0.00 0.01 0.01 0.01 0.01 0.01 0.02 0.02 0.02 0.02 0.02 0.02 0.02 0.03 0.04 0.04 0.05 0.05 0.04 0.04 0.04 0.04 0.03 0.04 0.05 0.05 0.05 0.04 0.03 0.03
MSLP
1013.98 1014.17 1014.39 1014.63 1014.85 1015.02 1015.13 1015.17 1015.15 1015.09 1015.02 1014.95 1014.92 1014.94 1015.01 1015.14 1015.31 1015.50 1015.71 1015.91 1016.09 1016.22 1016.32 1016.35 1016.34 1016.29 1016.20 1016.11 1016.03 1016.02 1016.08 1016.25 1016.53 1016.92 1017.39 1017.93 1018.48 1019.00
1013.60 1013.75 1013.94 1014.16 1014.38 1014.57 1014.73 1014.85 1014.92 1014.97 1015.01 1015.05 1015.11 1015.21 1015.33 1015.47 1015.63 1015.80 1015.97 1016.12 1016.24 1016.35 1016.42 1016.45 1016.45 1016.42 1016.36 1016.31 1016.27 1016.28 1016.36 1016.52 1016.79 1017.15 1017.60 1018.11 1018.63 1019.13
1013.13 1013.24 1013.40 1013.60 1013.81 1014.03 1014.23 1014.41 1014.57 1014.73 1014.87 1015.03 1015.19 1015.36 1015.54 1015.71 1015.87 1016.02 1016.16 1016.27 1016.37 1016.45 1016.51 1016.56 1016.58 1016.59 1016.59 1016.58 1016.58 1016.61 1016.70 1016.85 1017.08 1017.41 1017.81 1018.27 1018.76 1019.23
1012.54 1012.64 1012.78 1012.96 1013.17 1013.39 1013.63 1013.86 1014.10 1014.34 1014.59 1014.84 1015.09 1015.34 1015.57 1015.78 1015.96 1016.11 1016.23 1016.33 1016.42 1016.50 1016.57 1016.65 1016.71 1016.77 1016.82 1016.86 1016.90 1016.95 1017.03 1017.16 1017.35 1017.63 1017.98 1018.39 1018.83 1019.28
1011.85 1011.95 1012.08 1012.25 1012.46 1012.69 1012.95 1013.22 1013.51 1013.82 1014.14 1014.46 1014.79 1015.11 1015.39 1015.64 1015.85 1016.02 1016.15 1016.26 1016.36 1016.46 1016.56 1016.67 1016.79 1016.90 1016.99 1017.08 1017.15 1017.21 1017.29 1017.39 1017.55 1017.77 1018.07 1018.43 1018.84 1019.26
1011.09 1011.19 1011.33 1011.51 1011.72 1011.95 1012.22 1012.50 1012.82 1013.16 1013.52 1013.90 1014.28 1014.64 1014.98 1015.28 1015.53 1015.73 1015.89 1016.03 1016.15 1016.28 1016.42 1016.57 1016.73 1016.89 1017.04 1017.17 1017.27 1017.35 1017.43 1017.52 1017.65 1017.83 1018.09 1018.41 1018.79 1019.21
1010.27 1010.41 1010.57 1010.76 1010.98 1011.21 1011.46 1011.74 1012.05 1012.39 1012.76 1013.16 1013.57 1013.97 1014.35 1014.69 1014.98 1015.23 1015.43 1015.60 1015.76 1015.93 1016.11 1016.30 1016.51 1016.71 1016.91 1017.07 1017.21 1017.32 1017.41 1017.51 1017.63 1017.81 1018.04 1018.35 1018.73 1019.15
1009.43 1009.61 1009.81 1010.03 1010.25 1010.47 1010.71 1010.96 1011.24 1011.56 1011.92 1012.31 1012.73 1013.15 1013.55 1013.93 1014.26 1014.55 1014.79 1015.00 1015.20 1015.39 1015.60 1015.83 1016.07 1016.32 1016.55 1016.77 1016.95 1017.11 1017.24 1017.37 1017.52 1017.71 1017.96 1018.28 1018.67 1019.11
1008.57 1008.81 1009.06 1009.31 1009.55 1009.77 1009.98 1010.20 1010.45 1010.73 1011.05 1011.42 1011.82 1012.25 1012.67 1013.07 1013.43 1013.74 1014.02 1014.25 1014.47 1014.69 1014.91 1015.16 1015.42 1015.70 1015.98 1016.24 1016.48 1016.70 1016.90 1017.09 1017.30 1017.54 1017.83 1018.18 1018.60 1019.06
1007.71 1008.02 1008.33 1008.63 1008.89 1009.11 1009.32 1009.51 1009.72 1009.96 1010.24 1010.58 1010.96 1011.38 1011.80 1012.20 1012.57 1012.90 1013.19 1013.43 1013.65 1013.86 1014.08 1014.32 1014.59 1014.88 1015.19 1015.51 1015.82 1016.11 1016.40 1016.68 1016.97 1017.28 1017.63 1018.03 1018.48 1018.98
1006.85 1007.25 1007.64 1007.99 1008.30 1008.55 1008.75 1008.94 1009.12 1009.33 1009.59 1009.89 1010.25 1010.65 1011.05 1011.45 1011.81 1012.13 1012.39 1012.61 1012.80 1012.98 1013.16 1013.38 1013.63 1013.93 1014.26 1014.61 1014.98 1015.36 1015.73 1016.11 1016.49 1016.88 1017.31 1017.76 1018.25 1018.77
1006.07 1006.55 1007.02 1007.44 1007.81 1008.10 1008.33 1008.53 1008.71 1008.91 1009.15 1009.44 1009.77 1010.15 1010.53 1010.90 1011.23 1011.51 1011.72 1011.89 1012.02 1012.13 1012.26 1012.42 1012.63 1012.89 1013.22 1013.60 1014.01 1014.45 1014.91 1015.37 1015.83 1016.31 1016.79 1017.30 1017.82 1018.36
1005.41 1005.98 1006.53 1007.04 1007.47 1007.83 1008.11 1008.33 1008.54 1008.75 1008.98 1009.26 1009.58 1009.92 1010.27 1010.60 1010.88 1011.10 1011.24 1011.33 1011.37 1011.39 1011.43 1011.51 1011.65 1011.86 1012.16 1012.53 1012.96 1013.43 1013.93 1014.45 1014.98 1015.51 1016.04 1016.58 1017.12 1017.67
1004.96 1005.61 1006.25 1006.83 1007.34 1007.76 1008.10 1008.37 1008.62 1008.85 1009.10 1009.37 1009.67 1009.99 1010.29 1010.57 1010.78 1010.92 1010.98 1010.96 1010.90 1010.81 1010.74 1010.71 1010.76 1010.90 1011.13 1011.46 1011.86 1012.33 1012.84 1013.37 1013.92 1014.47 1015.02 1015.58 1016.13 1016.69
1004.78 1005.49 1006.20 1006.85 1007.43 1007.91 1008.31 1008.64 1008.92 1009.19 1009.45 1009.72 1010.01 1010.29 1010.55 1010.75 1010.89 1010.94 1010.90 1010.79 1010.61 1010.41 1010.22 1010.08 1010.01 1010.05 1010.19 1010.44 1010.78 1011.20 1011.67 1012.18 1012.71 1013.24 1013.78 1014.33 1014.88 1015.44
1004.90 1005.65 1006.40 1007.11 1007.73 1008.27 1008.71 1009.09 1009.41 1009.69 1009.96 1010.23 1010.49 1010.73 1010.94 1011.08 1011.14 1011.10 1010.97 1010.75 1010.47 1010.16 1009.86 1009.60 1009.42 1009.34 1009.38 1009.52 1009.77 1010.10 1010.49 1010.93 1011.40 1011.89 1012.39 1012.91 1013.44 1014.00
1005.28 1006.06 1006.83 1007.55 1008.20 1008.77 1009.24 1009.64 1009.98 1010.27 1010.54 1010.79 1011.02 1011.21 1011.36 1011.43 1011.42 1011.30 1011.09 1010.78 1010.41 1010.01 1009.61 1009.26 1008.97 1008.78 1008.70 1008.72 1008.85 1009.07 1009.36 1009.70 1010.09 1010.50 1010.95 1011.43 1011.94 1012.49
1005.87 1006.64 1007.40 1008.12 1008.77 1009.33 1009.81 1010.20 1010.54 1010.82 1011.07 1011.29 1011.47 1011.61 1011.70 1011.71 1011.63 1011.45 1011.17 1010.80 1010.37 1009.90 1009.43 1008.99 1008.62 1008.33 1008.14 1008.05 1008.06 1008.16 1008.33 1008.56 1008.85 1009.18 1009.57 1010.00 1010.48 1011.03
1006.57 1007.31 1008.04 1008.73 1009.35 1009.88 1010.33 1010.71 1011.01 1011.27 1011.47 1011.65 1011.78 1011.87 1011.89 1011.84 1011.70 1011.47 1011.14 1010.74 1010.26 1009.75 1009.24 1008.75 1008.31 1007.94 1007.65 1007.46 1007.36 1007.35 1007.41 1007.54 1007.73 1007.99 1008.31 1008.70 1009.16 1009.70
1007.28 1007.98 1008.66 1009.30 1009.87 1010.36 1010.76 1011.09 1011.36 1011.56 1011.72 1011.84 1011.92 1011.94 1011.91 1011.80 1011.61 1011.34 1010.98 1010.54 1010.04 1009.51 1008.97 1008.45 1007.96 1007.54 1007.19 1006.91 1006.72 1006.61 1006.58 1006.62 1006.74 1006.93 1007.20 1007.56 1008.00 1008.53
1007.95 1008.59 1009.22 1009.79 1010.30 1010.73 1011.08 1011.36 1011.57 1011.73 1011.83 1011.89 1011.90 1011.87 1011.77 1011.61 1011.37 1011.05 1010.67 1010.21 1009.70 1009.16 1008.60 1008.06 1007.54 1007.08 1006.67 1006.34 1006.08 1005.90 1005.80 1005.78 1005.84 1005.99 1006.23 1006.56 1007.00 1007.53
1008.54 1009.13 1009.69 1010.20 1010.65 1011.02 1011.31 1011.54 1011.70 1011.80 1011.85 1011.85 1011.80 1011.70 1011.54 1011.32 1011.03 1010.67 1010.25 1009.77 1009.24 1008.68 1008.11 1007.55 1007.02 1006.52 1006.08 1005.70 1005.40 1005.17 1005.02 1004.96 1004.99 1005.12 1005.34 1005.67 1006.10 1006.63
1009.07 1009.61 1010.10 1010.55 1010.93 1011.24 1011.49 1011.67 1011.78 1011.83 1011.83 1011.78 1011.67 1011.51 1011.29 1011.01 1010.67 1010.26 1009.79 1009.27 1008.71 1008.13 1007.54 1006.95 1006.39 1005.87 1005.40 1004.99 1004.65 1004.39 1004.22 1004.14 1004.16 1004.27 1004.50 1004.83 1005.27 1005.81
Thickness
5726 5724 5722 5720 5718 5716 5713 5710 5703 5697 5695 5695 5693 5693 5691 5690 5689 5688 5686 5685 5685 5683 5682 5681 5679 5678 5677 5675 5674 5672 5671 5669 5667 5664 5662 5661 5659 5658
5725 5722 5720 5718 5716 5714 5711 5708 5705 5700 5694 5692 5690 5688 5687 5685 5684 5682 5681 5680 5678 5677 5675 5674 5672 5671 5670 5668 5666 5665 5663 5660 5658 5656 5655 5653 5651 5649
5722 5720 5718 5716 5713 5711 5708 5705 5702 5699 5692 5688 5685 5683 5681 5680 5678 5676 5675 5674 5672 5670 5669 5667 5665 5664 5662 5661 5659 5657 5655 5652 5650 5648 5646 5644 5642 5641
5719 5718 5716 5714 5711 5708 5705 5702 5699 5696 5691 5684 5681 5679 5676 5674 5672 5670 5669 5668 5666 5664 5662 5660 5658 5656 5655 5653 5651 5649 5647 5644 5642 5640 5638 5636 5634 5632
5716 5715 5713 5710 5707 5704 5702 5699 5696 5693 5689 5683 5678 5674 5671 5668 5666 5664 5662 5660 5659 5657 5654 5652 5651 5649 5647 5645 5642 5640 5638 5636 5634 5632 5629 5626 5624 5622
5714 5712 5709 5707 5704 5701 5698 5695 5691 5687 5683 5679 5674 5670 5666 5663 5660 5658 5656 5654 5652 5650 5647 5645 5643 5641 5639 5637 5635 5632 5630 5627 5625 5622 5620 5617 5615 5612
5710 5708 5706 5704 5701 5698 5695 5691 5688 5683 5678 5674 5669 5665 5661 5657 5655 5653 5650 5647 5645 5642 5640 5638 5635 5633 5631 5629 5626 5624 5621 5619 5616 5614 5611 5609 5606 5604
5706 5704 5702 5700 5697 5695 5691 5688 5685 5680 5675 5670 5665 5661 5657 5654 5650 5647 5643 5640 5638 5635 5632 5630 5628 5626 5624 5621 5619 5616 5613 5611 5608 5606 5603 5601 5598 5596
5703 5700 5698 5696 5693 5690 5687 5683 5679 5676 5673 5668 5663 5659 5655 5651 5646 5641 5637 5635 5633 5630 5625 5624 5621 5619 5617 5615 5612 5609 5606 5603 5600 5597 5595 5593 5590 5588
5700 5697 5694 5691 5688 5685 5681 5677 5673 5670 5666 5663 5660 5656 5652 5647 5643 5638 5633 5629 5625 5622 5619 5617 5615 5613 5611 5608 5606 5603 5600 5596 5593 5590 5588 5585 5582 5580
5694 5692 5689 5685 5682 5679 5675 5671 5667 5664 5661 5657 5654 5650 5646 5641 5636 5631 5626 5623 5620 5617 5612 5610 5609 5606 5604 5602 5599 5597 5594 5590 5587 5584 5581 5578 5575 5572
5688 5685 5683 5679 5676 5672 5668 5664 5660 5656 5653 5651 5647 5643 5639 5635 5631 5627 5623 5618 5615 5612 5609 5604 5602 5599 5598 5596 5592 5590 5587 5584 5581 5577 5574 5571 5568 5564
5683 5680 5676 5672 5668 5664 5661 5657 5654 5650 5647 5643 5640 5637 5633 5628 5624 5621 5617 5614 5611 5608 5605 5599 5596 5593 5591 5589 5586 5583 5580 5577 5574 5571 5568 5565 5562 5558
5677 5673 5670 5665 5662 5658 5655 5651 5647 5643 5639 5636 5633 5630 5626 5622 5619 5615 5612 5609 5606 5603 5600 5595 5592 5589 5585 5583 5581 5578 5574 5571 5568 5565 5562 5559 5556 5553
5670 5666 5662 5658 5655 5652 5649 5644 5639 5636 5633 5629 5626 5623 5620 5616 5612 5609 5605 5602 5599 5596 5593 5590 5587 5583 5580 5579 5576 5572 5569 5566 5562 5559 5556 5553 5550 5547
5661 5657 5653 5650 5647 5644 5640 5636 5632 5629 5626 5623 5619 5616 5612 5608 5605 5602 5599 5595 5592 5590 5586 5584 5581 5578 5575 5573 5570 5567 5563 5560 5558 5554 5551 5548 5545 5543
5653 5649 5645 5641 5638 5635 5631 5628 5624 5621 5618 5615 5611 5608 5605 5602 5598 5595 5592 5588 5586 5584 5581 5577 5574 5571 5569 5567 5564 5562 5559 5556 5553 5549 5545 5544 5542 5539
5645 5641 5637 5634 5631 5627 5624 5620 5617 5614 5611 5608 5604 5601 5598 5595 5591 5588 5584 5582 5580 5578 5575 5572 5567 5564 5562 5560 5558 5556 5554 5552 5548 5544 5541 5539 5539 5537
5637 5634 5630 5627 5624 5620 5617 5614 5611 5608 5604 5600 5597 5594 5591 5588 5584 5581 5578 5576 5574 5571 5568 5564 5561 5559 5558 5557 5556 5550 5549 5546 5542 5539 5537 5535 5535 5535
5630 5627 5624 5621 5617 5614 5610 5607 5604 5600 5597 5594 5591 5587 5584 5581 5578 5576 5573 5570 5568 5565 5562 5559 5556 5554 5553 5552 5550 5547 5543 5540 5538 5535 5533 5531 5529 5528
5624 5621 5618 5615 5611 5608 5604 5601 5597 5594 5590 5587 5584 5581 5578 5574 5572 5570 5568 5564 5561 5560 5558 5556 5553 5549 5546 5543 5542 5542 5539 5535 5533 5531 5529 5526 5525 5524
5618 5615 5612 5608 5605 5602 5598 5594 5591 5587 5584 5581 5578 5575 5571 5569 5567 5564 5562 5560 5557 5555 5553 5551 5547 5542 5540 5538 5538 5536 5534 5530 5527 5525 5523 5523 5522 5522
5611 5608 5605 5601 5598 5595 5592 5589 5585 5582 5578 5575 5572 5569 5566 5563 5561 5558 5556 5554 5552 5550 5547 5544 5541 5538 5536 5534 5531 5530 5527 5525 5523 5521 5519 5517 5516 5516